Home > Weather > Shreveport > Past weeks

Flag for U.S.A. Weather for the Past 2 Weeks in Shreveport, Louisiana, U.S.A.

Now
47 °F

Clear.


Feels Like: 45 °F
Forecast: 43 / 69 °F
Wind: 5 mph from East

Location: Shreveport Regional Airport

Current Time: Feb 12, 2016 at 2:28:17 AM

Latest Report: Feb 12, 2016 at 1:56 AM


Visibility: 10 mi

Pressure: 30.14 "Hg

Humidity: 66%

Dew point: 36 °F

Location of ShreveportLocation

Historic Weather in Shreveport — Graph

°F

Shreveport Temperature Yesterday

Maximum temperature yesterday: 79 °F (at 1:56 PM)
Minimum temperature yesterday: 52 °F (at 5:56 AM)
Average temperature yesterday: 62 °F

High & Low Weather Summary for the Past Weeks

 TemperatureHumidityPressure
High79 °F (Feb 11, 1:56 PM)92% (Feb 7, 5:56 AM)30.51 "Hg (Feb 7, 5:56 AM)
Low27 °F (Feb 5, 6:56 AM)16% (Feb 8, 3:56 PM)29.60 "Hg (Feb 2, 12:56 AM)
Average53 °F50%30.09 "Hg
* Reported Jan 28 12:56 AM — Feb 12 12:56 AM, Shreveport, Weather by CustomWeather, © 2016

Note: Actual official high and low records may vary slightly from our data, if they occured in-between our weather recording intervals... More about our weather records

Advertising

Shreveport Weather History for the Previous 24 Hours

 ConditionsComfort  
Time TempWeatherWind HumidityBarometerVisibility
12:56 AM
Fri, Feb 12
49 °FClear.7 mph66%30.13 "Hg10 mi
11:56 PM
Thu, Feb 11
52 °FClear.7 mph61%30.13 "Hg10 mi
10:56 PM55 °FClear.7 mph57%30.12 "Hg10 mi
9:56 PM58 °FClear.9 mph51%30.13 "Hg10 mi
8:56 PM55 °FClear.No wind55%30.09 "Hg10 mi
7:56 PM58 °FPassing clouds.No wind50%30.09 "Hg10 mi
6:56 PM64 °FPassing clouds.5 mph38%30.07 "Hg10 mi
5:56 PM73 °FPassing clouds.3 mph24%30.06 "Hg10 mi
4:56 PM78 °FScattered clouds.9 mph19%30.05 "Hg10 mi
2:56 PM79 °FPartly sunny.9 mph19%30.03 "Hg10 mi
1:56 PM79 °FScattered clouds.15 mph20%30.03 "Hg10 mi
12:56 PM76 °FPassing clouds.12 mph21%30.06 "Hg10 mi
11:56 AM75 °FPassing clouds.15 mph22%30.09 "Hg10 mi
10:56 AM71 °FPassing clouds.15 mph28%30.10 "Hg10 mi
9:56 AM65 °FPassing clouds.17 mph37%30.10 "Hg10 mi
8:56 AM59 °FPassing clouds.13 mph48%30.10 "Hg10 mi
7:56 AM54 °FPassing clouds.12 mph57%30.08 "Hg10 mi
6:56 AM52 °FClear.12 mph61%30.06 "Hg10 mi
5:56 AM52 °FClear.13 mph61%30.06 "Hg10 mi
4:56 AM53 °FClear.14 mph59%30.05 "Hg10 mi
3:56 AM53 °FClear.15 mph61%30.05 "Hg10 mi
2:56 AM53 °FClear.15 mph61%30.05 "Hg10 mi
Weather by CustomWeather, © 2016

See weather overviewHow to use our weather pages